| time (UTC) | temp F | wind direction | speed knots | gust knots | rain 1hr in | rain 24hr in | rain mn in | humidity % | barometer mb |
| 20260831043649 | 0 | 0.0 | 0.0 | 0.00 | 0.00 | 0.00 | 1019.5 | ||
| 20260831043144 | 0 | 0.0 | 0.0 | 0.00 | 0.00 | 0.00 | 1019.5 | ||
| 20260831042643 | 0 | 0.0 | 0.0 | 0.00 | 0.00 | 0.00 | 1019.5 | ||
| 20260831042138 | 0 | 0.0 | 0.0 | 0.00 | 0.00 | 0.00 | 1019.4 | ||
| 20260831041633 | 80 | 192 | 3.5 | 6.1 | 0.00 | 0.00 | 0.00 | 75 | 1019.7 |
| 20260831041132 | 80 | 192 | 3.5 | 6.1 | 0.00 | 0.00 | 0.00 | 75 | 1019.6 |
| 20260831040628 | 80 | 192 | 3.5 | 6.1 | 0.00 | 0.00 | 0.00 | 75 | 1019.6 |
| 20260831040121 | 80 | 192 | 3.5 | 6.1 | 0.00 | 0.00 | 0.00 | 75 | 1019.5 |
| 20260831035619 | 80 | 192 | 3.5 | 6.1 | 0.00 | 0.00 | 0.00 | 75 | 1019.5 |
| 20260831035114 | 80 | 192 | 3.5 | 6.1 | 0.00 | 0.00 | 0.00 | 75 | 1019.6 |
| 20260831034613 | 80 | 192 | 3.5 | 6.1 | 0.00 | 0.00 | 0.00 | 75 | 1019.5 |
| 20260831034109 | 80 | 192 | 3.5 | 6.1 | 0.00 | 0.00 | 0.00 | 75 | 1019.6 |
| 20260831033604 | 80 | 192 | 3.5 | 6.1 | 0.00 | 0.00 | 0.00 | 75 | 1019.7 |
| 20260831033059 | 80 | 192 | 3.5 | 6.1 | 0.00 | 0.00 | 0.00 | 75 | 1019.7 |
| 20260831032559 | 80 | 192 | 3.5 | 6.1 | 0.00 | 0.00 | 0.00 | 75 | 1019.3 |
| 20260831032054 | 81 | 157 | 4.3 | 4.3 | 0.00 | 0.00 | 0.00 | 75 | 1019.5 |
| 20260831031554 | 81 | 157 | 4.3 | 4.3 | 0.00 | 0.00 | 0.00 | 75 | 1019.5 |
| 20260831031053 | 81 | 157 | 4.3 | 4.3 | 0.00 | 0.00 | 0.00 | 75 | 1019.5 |
| 20260831030553 | 81 | 157 | 4.3 | 4.3 | 0.00 | 0.00 | 0.00 | 75 | 1019.4 |
| 20260831030052 | 81 | 157 | 4.3 | 4.3 | 0.00 | 0.00 | 0.00 | 75 | 1019.4 |
| 20260831025550 | 81 | 157 | 4.3 | 4.3 | 0.00 | 0.00 | 0.00 | 75 | 1019.5 |
| 20260831025046 | 81 | 157 | 4.3 | 4.3 | 0.00 | 0.00 | 0.00 | 75 | 1019.4 |
| 20260831024542 | 0 | 0.0 | 0.0 | 0.00 | 0.00 | 0.00 | 1019.6 | ||
| 20260831024040 | 0 | 0.0 | 0.0 | 0.00 | 0.00 | 0.00 | 1019.5 | ||
| 20260831023539 | 0 | 0.0 | 0.0 | 0.00 | 0.00 | 0.00 | 1019.5 | ||
| 20260831023033 | 0 | 0.0 | 0.0 | 0.00 | 0.00 | 0.00 | 1019.6 | ||
| 20260831022533 | 0 | 0.0 | 0.0 | 0.00 | 0.00 | 0.00 | 1019.4 | ||
| 20260831022028 | 0 | 0.0 | 0.0 | 0.00 | 0.00 | 0.00 | 1019.2 | ||
| 20260831021527 | 0 | 0.0 | 0.0 | 0.00 | 0.00 | 0.00 | 1019.4 | ||
| 20260831021023 | 85 | 200 | 4.3 | 4.3 | 0.00 | 0.00 | 0.00 | 76 | 1019.3 |
| 20260831020518 | 85 | 200 | 4.3 | 4.3 | 0.00 | 0.00 | 0.00 | 76 | 1019.4 |
| 20260831020013 | 85 | 200 | 4.3 | 4.3 | 0.00 | 0.00 | 0.00 | 76 | 1019.3 |
| 20260831015509 | 85 | 200 | 4.3 | 4.3 | 0.00 | 0.00 | 0.00 | 76 | 1018.8 |
| 20260831015004 | 85 | 200 | 4.3 | 4.3 | 0.00 | 0.00 | 0.00 | 76 | 1018.9 |
| 20260831014458 | 85 | 200 | 4.3 | 4.3 | 0.00 | 0.00 | 0.00 | 76 | 1019.1 |
| 20260831013954 | 85 | 200 | 4.3 | 4.3 | 0.00 | 0.00 | 0.00 | 76 | 1018.9 |
| 20260831013450 | 85 | 200 | 4.3 | 4.3 | 0.00 | 0.00 | 0.00 | 76 | 1018.6 |
| 20260831012949 | 85 | 200 | 4.3 | 4.3 | 0.00 | 0.00 | 0.00 | 76 | 1018.7 |
| 20260831012444 | 85 | 200 | 4.3 | 4.3 | 0.00 | 0.00 | 0.00 | 76 | 1018.4 |
| 20260831011938 | 85 | 200 | 4.3 | 4.3 | 0.00 | 0.00 | 0.00 | 76 | 1018.6 |
| 20260831011433 | 85 | 200 | 4.3 | 4.3 | 0.00 | 0.00 | 0.00 | 76 | 1018.3 |
| 20260831010930 | 86 | 177 | 2.6 | 2.6 | 0.00 | 0.00 | 0.00 | 76 | 1018.2 |
| 20260831010429 | 86 | 177 | 2.6 | 2.6 | 0.00 | 0.00 | 0.00 | 76 | 1018.3 |
| 20260831005924 | 0 | 0.0 | 0.0 | 0.00 | 0.00 | 0.00 | 1018.4 | ||
| 20260831005415 | 0 | 0.0 | 0.0 | 0.00 | 0.00 | 0.00 | 1018.1 | ||
| 20260831004909 | 0 | 0.0 | 0.0 | 0.00 | 0.00 | 0.00 | 1018.2 | ||
| 20260831004406 | 0 | 0.0 | 0.0 | 0.00 | 0.00 | 0.00 | 1018.1 | ||
| 20260831003901 | 0 | 0.0 | 0.0 | 0.00 | 0.00 | 0.00 | 1018.1 | ||
| 20260831003357 | 0 | 0.0 | 0.0 | 0.00 | 0.00 | 0.00 | 1017.9 | ||
| 20260831002856 | 0 | 0.0 | 0.0 | 0.00 | 0.00 | 0.00 | 1017.8 | ||
| 20260831002355 | 0 | 0.0 | 0.0 | 0.00 | 0.00 | 0.00 | 1018.0 | ||
| 20260831001851 | 0 | 0.0 | 0.0 | 0.00 | 0.00 | 0.00 | 1018.0 | ||
| 20260831001351 | 0 | 0.0 | 0.0 | 0.00 | 0.00 | 0.00 | 1018.0 | ||
| 20260831000849 | 0 | 0.0 | 0.0 | 0.00 | 0.00 | 0.00 | 1017.7 | ||
| 20260831000344 | 0 | 0.0 | 0.0 | 0.00 | 0.00 | 0.00 | 1017.9 | ||
| 20260830235842 | 0 | 0.0 | 0.0 | 0.00 | 0.00 | 0.00 | 1017.9 | ||
| 20260830235337 | 0 | 0.0 | 0.0 | 0.00 | 0.00 | 0.00 | 1017.9 | ||
| 20260830234833 | 0 | 0.0 | 0.0 | 0.00 | 0.00 | 0.00 | 1018.0 | ||
| 20260830234328 | 0 | 0.0 | 0.0 | 0.00 | 0.00 | 0.00 | 1018.0 | ||
| 20260830233824 | 0 | 0.0 | 0.0 | 0.00 | 0.00 | 0.00 | 1018.1 | ||
| 20260830233319 | 0 | 0.0 | 0.0 | 0.00 | 0.00 | 0.00 | 1017.9 | ||
| 20260830232815 | 0 | 0.0 | 0.0 | 0.00 | 0.00 | 0.00 | 1018.1 | ||
| 20260830232310 | 0 | 0.0 | 0.0 | 0.00 | 0.00 | 0.00 | 1018.2 | ||
| 20260830231807 | 0 | 0.0 | 0.0 | 0.00 | 0.00 | 0.00 | 1018.3 | ||
| 20260830231306 | 94 | 195 | 3.5 | 6.1 | 0.00 | 0.00 | 0.00 | 77 | 1018.1 |
| 20260830230801 | 94 | 195 | 3.5 | 6.1 | 0.00 | 0.00 | 0.00 | 77 | 1018.0 |
| 20260830230257 | 94 | 195 | 3.5 | 6.1 | 0.00 | 0.00 | 0.00 | 77 | 1018.0 |
| 20260830225756 | 94 | 195 | 3.5 | 6.1 | 0.00 | 0.00 | 0.00 | 77 | 1017.9 |
| 20260830225251 | 94 | 195 | 3.5 | 6.1 | 0.00 | 0.00 | 0.00 | 77 | 1018.0 |
| 20260830224750 | 94 | 195 | 3.5 | 6.1 | 0.00 | 0.00 | 0.00 | 77 | 1018.1 |
| 20260830224245 | 94 | 195 | 3.5 | 6.1 | 0.00 | 0.00 | 0.00 | 77 | 1017.9 |
| 20260830223742 | 94 | 195 | 3.5 | 6.1 | 0.00 | 0.00 | 0.00 | 77 | 1018.1 |
| 20260830223238 | 94 | 195 | 3.5 | 6.1 | 0.00 | 0.00 | 0.00 | 77 | 1017.9 |
| 20260830222732 | 94 | 195 | 3.5 | 6.1 | 0.00 | 0.00 | 0.00 | 77 | 1018.0 |
| 20260830222227 | 94 | 195 | 3.5 | 6.1 | 0.00 | 0.00 | 0.00 | 77 | 1018.0 |
| 20260830221717 | 94 | 195 | 3.5 | 6.1 | 0.00 | 0.00 | 0.00 | 77 | 1018.0 |
| 20260830221214 | 95 | 168 | 3.5 | 4.3 | 0.00 | 0.00 | 0.00 | 77 | 1018.1 |
| 20260830220709 | 95 | 168 | 3.5 | 4.3 | 0.00 | 0.00 | 0.00 | 77 | 1018.0 |
| 20260830220208 | 95 | 143 | 4.3 | 7.8 | 0.00 | 0.00 | 0.00 | 77 | 1018.2 |
| 20260830215707 | 95 | 143 | 4.3 | 7.8 | 0.00 | 0.00 | 0.00 | 77 | 1018.1 |
| 20260830215201 | 95 | 143 | 4.3 | 7.8 | 0.00 | 0.00 | 0.00 | 77 | 1018.1 |
| 20260830214657 | 95 | 143 | 4.3 | 7.8 | 0.00 | 0.00 | 0.00 | 77 | 1018.2 |
| 20260830214151 | 95 | 143 | 4.3 | 7.8 | 0.00 | 0.00 | 0.00 | 77 | 1018.2 |
| 20260830213650 | 95 | 143 | 4.3 | 7.8 | 0.00 | 0.00 | 0.00 | 77 | 1018.1 |
| 20260830213146 | 95 | 143 | 4.3 | 7.8 | 0.00 | 0.00 | 0.00 | 77 | 1018.3 |
| 20260830212642 | 95 | 143 | 4.3 | 7.8 | 0.00 | 0.00 | 0.00 | 77 | 1018.4 |
| 20260830212136 | 95 | 143 | 4.3 | 7.8 | 0.00 | 0.00 | 0.00 | 77 | 1018.4 |
| 20260830211631 | 95 | 143 | 4.3 | 7.8 | 0.00 | 0.00 | 0.00 | 77 | 1018.3 |
| 20260830211130 | 94 | 110 | 5.2 | 5.2 | 0.00 | 0.00 | 0.00 | 77 | 1018.5 |
| 20260830210626 | 94 | 110 | 5.2 | 5.2 | 0.00 | 0.00 | 0.00 | 77 | 1018.4 |
| 20260830210125 | 94 | 110 | 5.2 | 5.2 | 0.00 | 0.00 | 0.00 | 77 | 1018.5 |
| 20260830205622 | 94 | 120 | 1.7 | 5.2 | 0.00 | 0.00 | 0.00 | 77 | 1018.7 |
| 20260830205118 | 95 | 196 | 3.5 | 7.0 | 0.00 | 0.00 | 0.00 | 77 | 1018.6 |
| 20260830204618 | 94 | 152 | 3.5 | 7.0 | 0.00 | 0.00 | 0.00 | 77 | 1018.6 |
| 20260830204117 | 95 | 192 | 0.0 | 3.5 | 0.00 | 0.00 | 0.00 | 77 | 1018.7 |
| 20260830203614 | 95 | 192 | 0.0 | 3.5 | 0.00 | 0.00 | 0.00 | 77 | 1018.8 |
| 20260830203113 | 94 | 125 | 3.5 | 3.5 | 0.00 | 0.00 | 0.00 | 77 | 1018.7 |
| 20260830202613 | 94 | 125 | 3.5 | 3.5 | 0.00 | 0.00 | 0.00 | 77 | 1018.4 |
| 20260830202109 | 94 | 125 | 3.5 | 3.5 | 0.00 | 0.00 | 0.00 | 77 | 1018.7 |
| 20260830201608 | 94 | 125 | 3.5 | 3.5 | 0.00 | 0.00 | 0.00 | 77 | 1018.6 |
| 20260830201103 | 94 | 125 | 3.5 | 3.5 | 0.00 | 0.00 | 0.00 | 77 | 1019.1 |
| 20260830200558 | 94 | 125 | 3.5 | 3.5 | 0.00 | 0.00 | 0.00 | 77 | 1018.9 |
| 20260830200057 | 94 | 125 | 3.5 | 3.5 | 0.00 | 0.00 | 0.00 | 77 | 1018.8 |
| 20260830195553 | 93 | 119 | 3.5 | 3.5 | 0.00 | 0.00 | 0.00 | 77 | 1019.1 |
| 20260830195051 | 92 | 188 | 5.2 | 7.0 | 0.00 | 0.00 | 0.00 | 77 | 1019.1 |
| 20260830194551 | 92 | 188 | 5.2 | 7.0 | 0.00 | 0.00 | 0.00 | 77 | 1019.1 |
| 20260830194045 | 92 | 188 | 5.2 | 7.0 | 0.00 | 0.00 | 0.00 | 77 | 1019.3 |
| 20260830193544 | 92 | 188 | 5.2 | 7.0 | 0.00 | 0.00 | 0.00 | 77 | 1019.4 |
| 20260830193040 | 91 | 216 | 4.3 | 5.2 | 0.00 | 0.00 | 0.00 | 76 | 1019.3 |
| 20260830192535 | 91 | 216 | 4.3 | 5.2 | 0.00 | 0.00 | 0.00 | 76 | 1019.4 |
| 20260830192030 | 91 | 216 | 4.3 | 5.2 | 0.00 | 0.00 | 0.00 | 76 | 1019.4 |
| 20260830191525 | 91 | 216 | 4.3 | 5.2 | 0.00 | 0.00 | 0.00 | 76 | 1019.5 |
| 20260830191020 | 91 | 216 | 4.3 | 5.2 | 0.00 | 0.00 | 0.00 | 76 | 1019.4 |
| 20260830190515 | 91 | 216 | 4.3 | 5.2 | 0.00 | 0.00 | 0.00 | 76 | 1019.5 |
| 20260830190010 | 91 | 216 | 4.3 | 5.2 | 0.00 | 0.00 | 0.00 | 76 | 1019.7 |
| 20260830185504 | 91 | 216 | 4.3 | 5.2 | 0.00 | 0.00 | 0.00 | 76 | 1019.9 |
| 20260830184959 | 91 | 180 | 0.9 | 5.2 | 0.00 | 0.00 | 0.00 | 76 | 1019.6 |
| 20260830184459 | 91 | 165 | 0.9 | 0.9 | 0.00 | 0.00 | 0.00 | 76 | 1019.7 |
| 20260830183953 | 91 | 165 | 0.9 | 1.7 | 0.00 | 0.00 | 0.00 | 76 | 1019.8 |
| 20260830183448 | 91 | 201 | 2.6 | 7.0 | 0.00 | 0.00 | 0.00 | 76 | 1019.9 |
| 20260830182943 | 91 | 208 | 1.7 | 6.1 | 0.00 | 0.00 | 0.00 | 76 | 1020.1 |
| 20260830182439 | 89 | 237 | 5.2 | 5.2 | 0.00 | 0.00 | 0.00 | 76 | 1020.0 |
| 20260830181935 | 89 | 237 | 5.2 | 5.2 | 0.00 | 0.00 | 0.00 | 76 | 1020.3 |
| 20260830181431 | 90 | 148 | 1.7 | 4.3 | 0.00 | 0.00 | 0.00 | 76 | 1020.2 |
| 20260830180925 | 89 | 232 | 5.2 | 8.7 | 0.00 | 0.00 | 0.00 | 76 | 1020.2 |
| 20260830180424 | 89 | 232 | 5.2 | 8.7 | 0.00 | 0.00 | 0.00 | 76 | 1020.3 |
| 20260830175923 | 89 | 150 | 1.7 | 4.3 | 0.00 | 0.00 | 0.00 | 76 | 1020.4 |
| 20260830175423 | 89 | 226 | 5.2 | 9.6 | 0.00 | 0.00 | 0.00 | 76 | 1020.7 |
| 20260830174918 | 89 | 192 | 4.3 | 5.2 | 0.00 | 0.00 | 0.00 | 76 | 1020.8 |
| 20260830174414 | 89 | 192 | 4.3 | 5.2 | 0.00 | 0.00 | 0.00 | 76 | 1020.7 |
| 20260830173909 | 88 | 223 | 5.2 | 8.7 | 0.00 | 0.00 | 0.00 | 76 | 1020.7 |
| 20260830173405 | 89 | 203 | 6.1 | 6.1 | 0.00 | 0.00 | 0.00 | 76 | 1020.8 |
| 20260830172900 | 88 | 163 | 5.2 | 8.7 | 0.00 | 0.00 | 0.00 | 76 | 1020.7 |
| 20260830172356 | 87 | 196 | 6.1 | 9.6 | 0.00 | 0.00 | 0.00 | 76 | 1020.9 |
| 20260830171852 | 87 | 209 | 6.1 | 9.6 | 0.00 | 0.00 | 0.00 | 76 | 1020.8 |
| 20260830171348 | 87 | 201 | 5.2 | 7.8 | 0.00 | 0.00 | 0.00 | 76 | 1020.7 |
| 20260830170842 | 87 | 240 | 2.6 | 11.3 | 0.00 | 0.00 | 0.00 | 76 | 1020.8 |
| 20260830170342 | 87 | 206 | 7.8 | 9.6 | 0.00 | 0.00 | 0.00 | 76 | 1021.0 |
| 20260830165840 | 87 | 182 | 2.6 | 9.6 | 0.00 | 0.00 | 0.00 | 76 | 1020.9 |
| 20260830165337 | 87 | 245 | 7.0 | 9.6 | 0.00 | 0.00 | 0.00 | 76 | 1020.9 |
| 20260830164832 | 87 | 225 | 5.2 | 7.0 | 0.00 | 0.00 | 0.00 | 76 | 1020.6 |
| 20260830164328 | 86 | 238 | 7.8 | 10.4 | 0.00 | 0.00 | 0.00 | 76 | 1020.8 |
| 20260830163825 | 86 | 200 | 7.0 | 7.8 | 0.00 | 0.00 | 0.00 | 76 | 1021.0 |
| 20260830163320 | 86 | 231 | 7.0 | 7.8 | 0.00 | 0.00 | 0.00 | 76 | 1021.2 |
| 20260830162815 | 86 | 190 | 3.5 | 6.1 | 0.00 | 0.00 | 0.00 | 76 | 1021.0 |
| 20260830162312 | 85 | 207 | 5.2 | 8.7 | 0.00 | 0.00 | 0.00 | 76 | 1021.1 |
| 20260830161811 | 86 | 202 | 8.7 | 10.4 | 0.00 | 0.00 | 0.00 | 76 | 1021.2 |
| 20260830161310 | 85 | 196 | 9.6 | 10.4 | 0.00 | 0.00 | 0.00 | 76 | 1021.3 |
| 20260830160806 | 85 | 218 | 5.2 | 13.0 | 0.00 | 0.00 | 0.00 | 76 | 1021.2 |
| 20260830160301 | 86 | 281 | 3.5 | 6.1 | 0.00 | 0.00 | 0.00 | 76 | 1021.4 |
| 20260830155757 | 85 | 205 | 6.1 | 11.3 | 0.00 | 0.00 | 0.00 | 76 | 1021.4 |
| 20260830155253 | 84 | 205 | 6.1 | 8.7 | 0.00 | 0.00 | 0.00 | 76 | 1021.4 |
| 20260830154753 | 84 | 195 | 3.5 | 4.3 | 0.00 | 0.00 | 0.00 | 76 | 1021.3 |
| 20260830154249 | 83 | 212 | 2.6 | 8.7 | 0.00 | 0.00 | 0.00 | 75 | 1021.2 |
| 20260830153745 | 84 | 219 | 3.5 | 6.1 | 0.00 | 0.00 | 0.00 | 76 | 1021.2 |
| 20260830153241 | 83 | 217 | 7.0 | 7.0 | 0.00 | 0.00 | 0.00 | 75 | 1021.2 |
| 20260830152739 | 82 | 202 | 7.0 | 7.8 | 0.00 | 0.00 | 0.00 | 75 | 1021.2 |
| 20260830152234 | 82 | 209 | 7.0 | 12.2 | 0.00 | 0.00 | 0.00 | 75 | 1021.4 |
| 20260830151728 | 81 | 191 | 4.3 | 7.8 | 0.00 | 0.00 | 0.00 | 75 | 1021.4 |
| 20260830151228 | 82 | 153 | 3.5 | 10.4 | 0.00 | 0.00 | 0.00 | 75 | 1021.1 |
| 20260830150723 | 81 | 157 | 4.3 | 8.7 | 0.00 | 0.00 | 0.00 | 75 | 1021.0 |
| 20260830150217 | 81 | 186 | 7.0 | 14.8 | 0.00 | 0.00 | 0.00 | 75 | 1021.0 |
| 20260830145712 | 81 | 157 | 3.5 | 8.7 | 0.00 | 0.00 | 0.00 | 75 | 1021.2 |
| 20260830145207 | 81 | 159 | 1.7 | 10.4 | 0.00 | 0.00 | 0.00 | 75 | 1021.0 |
| 20260830144702 | 80 | 180 | 3.5 | 5.2 | 0.00 | 0.00 | 0.00 | 75 | 1021.0 |
| 20260830144158 | 80 | 188 | 3.5 | 11.3 | 0.00 | 0.00 | 0.00 | 75 | 1021.0 |
| 20260830143654 | 80 | 197 | 2.6 | 5.2 | 0.00 | 0.00 | 0.00 | 75 | 1021.0 |
| 20260830143152 | 79 | 199 | 4.3 | 6.1 | 0.00 | 0.00 | 0.00 | 75 | 1021.3 |
| 20260830142647 | 79 | 202 | 2.6 | 2.6 | 0.00 | 0.00 | 0.00 | 75 | 1021.1 |
| 20260830142142 | 78 | 191 | 2.6 | 7.0 | 0.00 | 0.00 | 0.00 | 75 | 1021.1 |
| 20260830141637 | 78 | 197 | 2.6 | 4.3 | 0.00 | 0.00 | 0.00 | 75 | 1021.1 |
| 20260830141132 | 76 | 202 | 2.6 | 2.6 | 0.00 | 0.00 | 0.00 | 75 | 1021.0 |
| 20260830140627 | 76 | 202 | 2.6 | 2.6 | 0.00 | 0.00 | 0.00 | 75 | 1021.2 |
| 20260830140127 | 76 | 202 | 2.6 | 2.6 | 0.00 | 0.00 | 0.00 | 75 | 1021.2 |
| 20260830135627 | 75 | 172 | 1.7 | 3.5 | 0.00 | 0.00 | 0.00 | 74 | 1021.2 |
| 20260830135122 | 0 | 0.0 | 0.0 | 0.00 | 0.00 | 0.00 | 1021.2 | ||
| 20260830134618 | 0 | 0.0 | 0.0 | 0.00 | 0.00 | 0.00 | 1021.3 | ||
| 20260830134114 | 0 | 0.0 | 0.0 | 0.00 | 0.00 | 0.00 | 1021.5 | ||
| 20260830133609 | 0 | 0.0 | 0.0 | 0.00 | 0.00 | 0.00 | 1021.4 | ||
| 20260830133104 | 0 | 0.0 | 0.0 | 0.00 | 0.00 | 0.00 | 1021.5 | ||
| 20260830132600 | 0 | 0.0 | 0.0 | 0.00 | 0.00 | 0.00 | 1021.6 | ||
| 20260830132055 | 0 | 0.0 | 0.0 | 0.00 | 0.00 | 0.00 | 1021.5 | ||
| 20260830131554 | 0 | 0.0 | 0.0 | 0.00 | 0.00 | 0.00 | 1021.5 | ||
| 20260830131049 | 0 | 0.0 | 0.0 | 0.00 | 0.00 | 0.00 | 1021.8 | ||
| 20260830130544 | 0 | 0.0 | 0.0 | 0.00 | 0.00 | 0.00 | 1021.5 | ||
| 20260830130039 | 0 | 0.0 | 0.0 | 0.00 | 0.00 | 0.00 | 1021.5 | ||
| 20260830125533 | 0 | 0.0 | 0.0 | 0.00 | 0.00 | 0.00 | 1021.6 | ||
| 20260830125033 | 0 | 0.0 | 0.0 | 0.00 | 0.00 | 0.00 | 1021.5 | ||
| 20260830124532 | 0 | 0.0 | 0.0 | 0.00 | 0.00 | 0.00 | 1021.3 | ||
| 20260830124028 | 0 | 0.0 | 0.0 | 0.00 | 0.00 | 0.00 | 1021.5 | ||
| 20260830123525 | 0 | 0.0 | 0.0 | 0.00 | 0.00 | 0.00 | 1021.5 | ||
| 20260830123019 | 0 | 0.0 | 0.0 | 0.00 | 0.00 | 0.00 | 1021.3 | ||
| 20260830122516 | 0 | 0.0 | 0.0 | 0.00 | 0.00 | 0.00 | 1021.5 | ||
| 20260830122012 | 0 | 0.0 | 0.0 | 0.00 | 0.00 | 0.00 | 1021.2 | ||
| 20260830121508 | 0 | 0.0 | 0.0 | 0.00 | 0.00 | 0.00 | 1021.2 | ||
| 20260830121007 | 0 | 0.0 | 0.0 | 0.00 | 0.00 | 0.00 | 1021.3 | ||
| 20260830120502 | 0 | 0.0 | 0.0 | 0.00 | 0.00 | 0.00 | 1021.3 | ||
| 20260830115959 | 0 | 0.0 | 0.0 | 0.00 | 0.00 | 0.00 | 1021.1 | ||
| 20260830115455 | 0 | 0.0 | 0.0 | 0.00 | 0.00 | 0.00 | 1021.1 | ||
| 20260830114950 | 0 | 0.0 | 0.0 | 0.00 | 0.00 | 0.00 | 1021.2 | ||
| 20260830114447 | 0 | 0.0 | 0.0 | 0.00 | 0.00 | 0.00 | 1021.0 | ||
| 20260830113946 | 0 | 0.0 | 0.0 | 0.00 | 0.00 | 0.00 | 1020.7 | ||
| 20260830113441 | 0 | 0.0 | 0.0 | 0.00 | 0.00 | 0.00 | 1020.7 | ||
| 20260830112937 | 0 | 0.0 | 0.0 | 0.00 | 0.00 | 0.00 | 1020.7 | ||
| 20260830112433 | 0 | 0.0 | 0.0 | 0.00 | 0.00 | 0.00 | 1020.6 | ||
| 20260830111928 | 0 | 0.0 | 0.0 | 0.00 | 0.00 | 0.00 | 1020.6 | ||
| 20260830111424 | 0 | 0.0 | 0.0 | 0.00 | 0.00 | 0.00 | 1020.7 | ||
| 20260830110920 | 0 | 0.0 | 0.0 | 0.00 | 0.00 | 0.00 | 1020.6 | ||
| 20260830110415 | 0 | 0.0 | 0.0 | 0.00 | 0.00 | 0.00 | 1020.4 | ||
| 20260830105914 | 0 | 0.0 | 0.0 | 0.00 | 0.00 | 0.00 | 1020.5 | ||
| 20260830105411 | 0 | 0.0 | 0.0 | 0.00 | 0.00 | 0.00 | 1020.6 | ||
| 20260830104907 | 0 | 0.0 | 0.0 | 0.00 | 0.00 | 0.00 | 1020.7 | ||
| 20260830104403 | 0 | 0.0 | 0.0 | 0.00 | 0.00 | 0.00 | 1020.7 | ||
| 20260830103902 | 0 | 0.0 | 0.0 | 0.00 | 0.00 | 0.00 | 1020.6 | ||
| 20260830103358 | 0 | 0.0 | 0.0 | 0.00 | 0.00 | 0.00 | 1020.6 | ||
| 20260830102856 | 0 | 0.0 | 0.0 | 0.00 | 0.00 | 0.00 | 1020.5 | ||
| 20260830102352 | 0 | 0.0 | 0.0 | 0.00 | 0.00 | 0.00 | 1020.4 | ||
| 20260830101848 | 0 | 0.0 | 0.0 | 0.00 | 0.00 | 0.00 | 1020.5 | ||
| 20260830101343 | 0 | 0.0 | 0.0 | 0.00 | 0.00 | 0.00 | 1020.4 | ||
| 20260830100842 | 0 | 0.0 | 0.0 | 0.00 | 0.00 | 0.00 | 1020.7 | ||
| 20260830100342 | 0 | 0.0 | 0.0 | 0.00 | 0.00 | 0.00 | 1020.6 | ||
| 20260830095841 | 0 | 0.0 | 0.0 | 0.00 | 0.00 | 0.00 | 1020.7 | ||
| 20260830095337 | 0 | 0.0 | 0.0 | 0.00 | 0.00 | 0.00 | 1020.6 | ||
| 20260830094832 | 0 | 0.0 | 0.0 | 0.00 | 0.00 | 0.00 | 1020.5 | ||
| 20260830094329 | 0 | 0.0 | 0.0 | 0.00 | 0.00 | 0.00 | 1020.7 | ||
| 20260830093824 | 0 | 0.0 | 0.0 | 0.00 | 0.00 | 0.00 | 1020.5 | ||
| 20260830093319 | 0 | 0.0 | 0.0 | 0.00 | 0.00 | 0.00 | 1020.8 | ||
| 20260830092814 | 0 | 0.0 | 0.0 | 0.00 | 0.00 | 0.00 | 1020.6 | ||
| 20260830092310 | 0 | 0.0 | 0.0 | 0.00 | 0.00 | 0.00 | 1020.6 | ||
| 20260830091806 | 0 | 0.0 | 0.0 | 0.00 | 0.00 | 0.00 | 1020.7 | ||
| 20260830091301 | 0 | 0.0 | 0.0 | 0.00 | 0.00 | 0.00 | 1020.4 | ||
| 20260830090800 | 0 | 0.0 | 0.0 | 0.00 | 0.00 | 0.00 | 1020.7 | ||
| 20260830090255 | 0 | 0.0 | 0.0 | 0.00 | 0.00 | 0.00 | 1020.4 | ||
| 20260830085754 | 0 | 0.0 | 0.0 | 0.00 | 0.00 | 0.00 | 1020.7 | ||
| 20260830085250 | 0 | 0.0 | 0.0 | 0.00 | 0.00 | 0.00 | 1020.6 | ||
| 20260830084745 | 0 | 0.0 | 0.0 | 0.00 | 0.00 | 0.00 | 1020.4 | ||
| 20260830084241 | 0 | 0.0 | 0.0 | 0.00 | 0.00 | 0.00 | 1020.1 | ||
| 20260830083736 | 0 | 0.0 | 0.0 | 0.00 | 0.00 | 0.00 | 1020.3 | ||
| 20260830083232 | 70 | 138 | 2.6 | 3.5 | 0.00 | 0.00 | 0.00 | 74 | 1020.2 |
| 20260830082731 | 70 | 138 | 2.6 | 3.5 | 0.00 | 0.00 | 0.00 | 74 | 1020.4 |
| 20260830082227 | 70 | 138 | 2.6 | 3.5 | 0.00 | 0.00 | 0.00 | 74 | 1020.3 |
| 20260830081722 | 70 | 138 | 2.6 | 3.5 | 0.00 | 0.00 | 0.00 | 74 | 1020.1 |
| 20260830081222 | 70 | 138 | 2.6 | 3.5 | 0.00 | 0.00 | 0.00 | 74 | 1020.2 |
| 20260830080716 | 70 | 138 | 2.6 | 3.5 | 0.00 | 0.00 | 0.00 | 74 | 1020.3 |
| 20260830080212 | 70 | 138 | 2.6 | 3.5 | 0.00 | 0.00 | 0.00 | 74 | 1020.7 |
| 20260830075711 | 70 | 138 | 2.6 | 3.5 | 0.00 | 0.00 | 0.00 | 74 | 1020.7 |
| 20260830075207 | 70 | 138 | 2.6 | 3.5 | 0.00 | 0.00 | 0.00 | 74 | 1020.4 |
| 20260830074702 | 70 | 138 | 2.6 | 3.5 | 0.00 | 0.00 | 0.00 | 74 | 1020.4 |
| 20260830074158 | 70 | 138 | 2.6 | 3.5 | 0.00 | 0.00 | 0.00 | 74 | 1020.4 |
| 20260830073654 | 70 | 138 | 2.6 | 3.5 | 0.00 | 0.00 | 0.00 | 74 | 1020.6 |
| 20260830073150 | 71 | 196 | 1.7 | 2.6 | 0.00 | 0.00 | 0.00 | 74 | 1020.8 |
| 20260830072644 | 71 | 154 | 3.5 | 3.5 | 0.00 | 0.00 | 0.00 | 74 | 1020.6 |
| 20260830072144 | 71 | 154 | 3.5 | 3.5 | 0.00 | 0.00 | 0.00 | 74 | 1020.5 |
| 20260830071640 | 71 | 154 | 3.5 | 3.5 | 0.00 | 0.00 | 0.00 | 74 | 1020.6 |
| 20260830071138 | 71 | 154 | 3.5 | 3.5 | 0.00 | 0.00 | 0.00 | 74 | 1020.6 |
| 20260830070633 | 71 | 159 | 2.6 | 2.6 | 0.00 | 0.00 | 0.00 | 74 | 1020.5 |
| 20260830070128 | 73 | 180 | 1.7 | 4.3 | 0.00 | 0.00 | 0.00 | 74 | 1020.8 |
| 20260830065626 | 73 | 180 | 1.7 | 4.3 | 0.00 | 0.00 | 0.00 | 74 | 1020.8 |
| 20260830065125 | 73 | 180 | 1.7 | 4.3 | 0.00 | 0.00 | 0.00 | 74 | 1020.7 |
| 20260830064620 | 73 | 180 | 1.7 | 4.3 | 0.00 | 0.00 | 0.00 | 74 | 1020.5 |
| 20260830064115 | 73 | 180 | 1.7 | 4.3 | 0.00 | 0.00 | 0.00 | 74 | 1020.5 |
| 20260830063609 | 73 | 180 | 1.7 | 4.3 | 0.00 | 0.00 | 0.00 | 74 | 1020.6 |
| 20260830063108 | 73 | 180 | 1.7 | 4.3 | 0.00 | 0.00 | 0.00 | 74 | 1020.6 |
| 20260830062603 | 73 | 180 | 1.7 | 4.3 | 0.00 | 0.00 | 0.00 | 74 | 1020.7 |
| 20260830062057 | 73 | 180 | 1.7 | 4.3 | 0.00 | 0.00 | 0.00 | 74 | 1020.8 |
| 20260830061552 | 73 | 151 | 3.5 | 3.5 | 0.00 | 0.00 | 0.00 | 74 | 1020.5 |
| 20260830061048 | 0 | 0.0 | 0.0 | 0.00 | 0.00 | 0.00 | 1020.5 | ||
| 20260830060544 | 0 | 0.0 | 0.0 | 0.00 | 0.00 | 0.00 | 1020.5 | ||
| 20260830060041 | 0 | 0.0 | 0.0 | 0.00 | 0.00 | 0.00 | 1020.6 | ||
| 20260830055535 | 0 | 0.0 | 0.0 | 0.00 | 0.00 | 0.00 | 1020.7 | ||
| 20260830055032 | 0 | 0.0 | 0.0 | 0.00 | 0.00 | 0.00 | 1020.6 | ||
| 20260830054527 | 0 | 0.0 | 0.0 | 0.00 | 0.00 | 0.00 | 1020.7 | ||
| 20260830054022 | 0 | 0.0 | 0.0 | 0.00 | 0.00 | 0.00 | 1020.8 | ||
| 20260830053517 | 0 | 0.0 | 0.0 | 0.00 | 0.00 | 0.00 | 1020.8 | ||
| 20260830053017 | 0 | 0.0 | 0.0 | 0.00 | 0.00 | 0.00 | 1021.0 | ||
| 20260830052513 | 0 | 0.0 | 0.0 | 0.00 | 0.00 | 0.00 | 1020.5 | ||
| 20260830052012 | 0 | 0.0 | 0.0 | 0.00 | 0.00 | 0.00 | 1020.6 | ||
| 20260830051508 | 0 | 0.0 | 0.0 | 0.00 | 0.00 | 0.00 | 1020.6 | ||
| 20260830051003 | 0 | 0.0 | 0.0 | 0.00 | 0.00 | 0.00 | 1020.6 | ||
| 20260830050457 | 0 | 0.0 | 0.0 | 0.00 | 0.00 | 0.00 | 1020.7 | ||
| 20260830045955 | 0 | 0.0 | 0.0 | 0.00 | 0.00 | 0.00 | 1020.5 | ||
| 20260830045450 | 0 | 0.0 | 0.0 | 0.00 | 0.00 | 0.00 | 1020.6 | ||
| 20260830044950 | 0 | 0.0 | 0.0 | 0.00 | 0.00 | 0.00 | 1020.6 | ||
| 20260830044445 | 76 | 172 | 1.7 | 5.2 | 0.00 | 0.00 | 0.00 | 74 | 1020.7 |